Voltar ao catálogo

FREGAT DEB

LostUNKNOWN
NORAD 46620·DEBRIS·🇷🇺 Russia

Lançado Jul 18, 2011 de Baikonur Cosmodrome

Loading…

Próximas Passagens (próximas 24 horas)

TLE

ObsoletoSource: Space-Track

Época: Jan 25, 2021, 00:48 UTC

1 46620U 11037ML  21025.03364512  .02429433  00000-0  40604+0 0  9994
2 46620  50.9065 313.7891 2316617 356.8086   1.9873 10.49069001 12291

Acompanhe FREGAT DEB em tempo real com AllMySat

Download on the App Store